Météo par heure à Aarle

Ce jour, 29 Novembre, Dimanche

Heure Température Précipitation Vent Pression Humidité
00:00 +1°C° 0 mm 3 m/s 766 mmHg 90%
01:00 +1°C° 0 mm 3 m/s 766 mmHg 90%
02:00 +1°C° 0 mm 3 m/s 766 mmHg 90%
03:00 0°C° 0 mm 3 m/s 766 mmHg 90%
04:00 0°C° 0 mm 3 m/s 766 mmHg 90%
05:00 -1°C° 0 mm 3 m/s 766 mmHg 90%
06:00 -1°C° 0 mm 3 m/s 767 mmHg 89%
07:00 -1°C° 0 mm 3 m/s 767 mmHg 86%
08:00 0°C° 0 mm 3 m/s 767 mmHg 83%
09:00 0°C° 0 mm 3 m/s 767 mmHg 79%
10:00 +1°C° 0 mm 3 m/s 767 mmHg 74%
11:00 +3°C° 0 mm 2 m/s 767 mmHg 70%
12:00 +4°C° 0 mm 2 m/s 767 mmHg 65%
13:00 +3°C° 0 mm 2 m/s 767 mmHg 67%
14:00 +3°C° 0 mm 2 m/s 767 mmHg 70%
15:00 +3°C° 0 mm 2 m/s 767 mmHg 72%
16:00 +2°C° 0 mm 2 m/s 767 mmHg 75%
17:00 +1°C° 0 mm 2 m/s 768 mmHg 78%
18:00 -1°C° 0 mm 2 m/s 768 mmHg 81%
19:00 -1°C° 0 mm 2 m/s 768 mmHg 82%
20:00 +1°C° 0 mm 1 m/s 768 mmHg 82%
21:00 +1°C° 0 mm 1 m/s 768 mmHg 82%
22:00 +1°C° 0 mm 1 m/s 768 mmHg 82%
23:00 +1°C° 0 mm 1 m/s 768 mmHg 82%

Demain, 30 Novembre, Lundi

Heure Température Précipitation Vent Pression Humidité
00:00 +1°C° 0 mm 1 m/s 768 mmHg 82%
01:00 +1°C° 0 mm 1 m/s 768 mmHg 81%
02:00 0°C° 0 mm 0 m/s 768 mmHg 80%
03:00 0°C° 0 mm 0 m/s 767 mmHg 80%
04:00 +1°C° 0 mm 1 m/s 768 mmHg 79%
05:00 +1°C° 0 mm 1 m/s 768 mmHg 78%
06:00 +1°C° 0 mm 1 m/s 768 mmHg 77%
07:00 +1°C° 0 mm 1 m/s 768 mmHg 74%
08:00 +2°C° 0 mm 1 m/s 768 mmHg 72%
09:00 +1°C° 0 mm 2 m/s 767 mmHg 69%
10:00 +2°C° 0 mm 2 m/s 767 mmHg 66%
11:00 +3°C° 0 mm 2 m/s 767 mmHg 62%
12:00 +3°C° 0 mm 3 m/s 766 mmHg 59%
13:00 +3°C° 0 mm 3 m/s 766 mmHg 59%
14:00 +3°C° 0 mm 3 m/s 765 mmHg 59%
15:00 +3°C° 0 mm 3 m/s 764 mmHg 59%
16:00 +3°C° 0.1 mm 4 m/s 764 mmHg 65%
17:00 +3°C° 0.1 mm 4 m/s 763 mmHg 71%
18:00 +2°C° 0.1 mm 5 m/s 762 mmHg 77%
19:00 +2°C° 0.9 mm 5 m/s 762 mmHg 83%
20:00 +2°C° 0.9 mm 5 m/s 761 mmHg 88%
21:00 +2°C° 0.9 mm 6 m/s 761 mmHg 94%
22:00 +3°C° 0.6 mm 5 m/s 760 mmHg 95%
23:00 +5°C° 0.6 mm 5 m/s 759 mmHg 96%

Après-demain, 1 Décembre, Mardi

Heure Température Précipitation Vent Pression Humidité
00:00 +5°C° 0.6 mm 5 m/s 758 mmHg 97%
01:00 +5°C° 1.5 mm 5 m/s 758 mmHg 96%
02:00 +6°C° 1.5 mm 5 m/s 757 mmHg 95%
03:00 +6°C° 1.5 mm 4 m/s 757 mmHg 94%
04:00 +5°C° 0.3 mm 4 m/s 757 mmHg 92%
05:00 +5°C° 0.3 mm 3 m/s 757 mmHg 90%
06:00 +4°C° 0.3 mm 3 m/s 757 mmHg 87%
07:00 +5°C° 0 mm 2 m/s 757 mmHg 87%
08:00 +5°C° 0 mm 2 m/s 757 mmHg 87%
09:00 +5°C° 0 mm 2 m/s 757 mmHg 86%
10:00 +6°C° 0 mm 2 m/s 758 mmHg 86%
11:00 +7°C° 0 mm 2 m/s 758 mmHg 86%
12:00 +7°C° 0 mm 2 m/s 758 mmHg 85%
13:00 +7°C° 0 mm 2 m/s 759 mmHg 88%
14:00 +8°C° 0 mm 2 m/s 759 mmHg 91%
15:00 +9°C° 0 mm 1 m/s 759 mmHg 94%
16:00 +7°C° 0 mm 2 m/s 760 mmHg 93%
17:00 +7°C° 0 mm 3 m/s 760 mmHg 93%
18:00 +7°C° 0 mm 3 m/s 761 mmHg 93%
19:00 +5°C° 0 mm 3 m/s 761 mmHg 92%
20:00 +5°C° 0 mm 3 m/s 761 mmHg 91%
21:00 +5°C° 0 mm 3 m/s 762 mmHg 90%
22:00 +5°C° 0 mm 3 m/s 762 mmHg 91%
23:00 +5°C° 0 mm 3 m/s 762 mmHg 91%

2 Décembre, Mercredi

Heure Température Précipitation Vent Pression Humidité
00:00 +4°C° 0 mm 3 m/s 762 mmHg 91%
01:00 +4°C° 0 mm 3 m/s 762 mmHg 92%
02:00 +4°C° 0 mm 2 m/s 762 mmHg 93%
03:00 +4°C° 0 mm 2 m/s 762 mmHg 95%
04:00 +4°C° 0 mm 2 m/s 762 mmHg 94%
05:00 +4°C° 0 mm 2 m/s 762 mmHg 94%
06:00 +4°C° 0 mm 2 m/s 762 mmHg 93%
07:00 +4°C° 0 mm 2 m/s 762 mmHg 93%
08:00 +4°C° 0 mm 2 m/s 762 mmHg 92%
09:00 +5°C° 0 mm 1 m/s 762 mmHg 91%
10:00 +5°C° 0 mm 1 m/s 762 mmHg 89%
11:00 +6°C° 0 mm 1 m/s 761 mmHg 88%
12:00 +5°C° 0 mm 0 m/s 761 mmHg 86%
13:00 +5°C° 0 mm 0 m/s 760 mmHg 86%
14:00 +5°C° 0 mm 0 m/s 760 mmHg 86%
15:00 +6°C° 0 mm 1 m/s 760 mmHg 87%
16:00 +6°C° 0 mm 1 m/s 759 mmHg 87%
17:00 +5°C° 0 mm 0 m/s 759 mmHg 87%
18:00 +5°C° 0 mm 0 m/s 759 mmHg 87%
19:00 +6°C° 0 mm 1 m/s 759 mmHg 88%
20:00 +6°C° 0 mm 1 m/s 759 mmHg 88%
21:00 +5°C° 0 mm 1 m/s 759 mmHg 89%
22:00 +5°C° 0 mm 1 m/s 758 mmHg 89%
23:00 +5°C° 0 mm 1 m/s 758 mmHg 89%

3 Décembre, Jeudi

Heure Température Précipitation Vent Pression Humidité
00:00 +5°C° 0 mm 1 m/s 758 mmHg 89%
01:00 +5°C° 0 mm 1 m/s 757 mmHg 90%
02:00 +5°C° 0 mm 1 m/s 756 mmHg 91%
03:00 +5°C° 0 mm 1 m/s 756 mmHg 92%
04:00 +5°C° 0 mm 1 m/s 755 mmHg 92%
05:00 +4°C° 0 mm 1 m/s 755 mmHg 92%
06:00 +3°C° 0 mm 2 m/s 755 mmHg 92%
07:00 +4°C° 0 mm 2 m/s 754 mmHg 90%
08:00 +4°C° 0 mm 2 m/s 754 mmHg 88%
09:00 +4°C° 0 mm 2 m/s 754 mmHg 87%
10:00 +4°C° 0 mm 2 m/s 753 mmHg 84%
11:00 +4°C° 0 mm 3 m/s 752 mmHg 81%
12:00 +4°C° 0 mm 3 m/s 752 mmHg 78%
13:00 +4°C° 0 mm 3 m/s 751 mmHg 79%
14:00 +5°C° 0 mm 2 m/s 751 mmHg 80%
15:00 +5°C° 0 mm 2 m/s 750 mmHg 81%
16:00 +4°C° 0 mm 3 m/s 750 mmHg 81%
17:00 +3°C° 0 mm 3 m/s 749 mmHg 81%
18:00 +3°C° 0 mm 4 m/s 749 mmHg 81%
19:00 +3°C° 0 mm 3 m/s 749 mmHg 81%
20:00 +2°C° 0 mm 3 m/s 748 mmHg 81%
21:00 +1°C° 0 mm 3 m/s 748 mmHg 80%
22:00 +1°C° 0 mm 3 m/s 748 mmHg 81%
23:00 0°C° 0 mm 3 m/s 747 mmHg 81%

4 Décembre, Vendredi

Heure Température Précipitation Vent Pression Humidité
00:00 0°C° 0 mm 3 m/s 746 mmHg 81%
01:00 -1°C° 0 mm 3 m/s 746 mmHg 81%
02:00 -1°C° 0 mm 3 m/s 745 mmHg 81%
03:00 -1°C° 0 mm 3 m/s 745 mmHg 81%
04:00 -1°C° 0 mm 3 m/s 745 mmHg 81%
05:00 -2°C° 0 mm 3 m/s 744 mmHg 81%
06:00 -2°C° 0 mm 3 m/s 744 mmHg 81%
07:00 -1°C° 0 mm 3 m/s 744 mmHg 79%
08:00 -2°C° 0 mm 4 m/s 743 mmHg 77%
09:00 -1°C° 0 mm 4 m/s 743 mmHg 75%
10:00 -1°C° 0 mm 4 m/s 743 mmHg 73%
11:00 0°C° 0 mm 4 m/s 743 mmHg 71%
12:00 +1°C° 0 mm 4 m/s 742 mmHg 68%
13:00 +1°C° 0 mm 3 m/s 742 mmHg 70%
14:00 +1°C° 0 mm 3 m/s 742 mmHg 71%
15:00 +1°C° 0 mm 3 m/s 741 mmHg 72%
16:00 +1°C° 0 mm 3 m/s 741 mmHg 75%
17:00 0°C° 0 mm 3 m/s 741 mmHg 77%
18:00 0°C° 0 mm 3 m/s 741 mmHg 79%
19:00 +1°C° 0 mm 2 m/s 741 mmHg 80%
20:00 +1°C° 0 mm 2 m/s 741 mmHg 81%
21:00 +1°C° 0 mm 2 m/s 741 mmHg 82%
22:00 +1°C° 0 mm 2 m/s 741 mmHg 81%
23:00 +1°C° 0 mm 2 m/s 741 mmHg 81%
Voir plus

Nous avons besoin de votre consentement

Meteoprog et ses fournisseurs de services peuvent stocker et accéder à des données personnelles telles que des cookies, des identifiants d'appareils ou d'autres technologies similaires sur votre appareil et traiter ces données pour personnaliser le contenu et les publicités, ainsi que pour fournir des fonctionnalités de médias sociaux et analyser le trafic.

  • Stocker et/ou accéder à des informations sur votre appareil

    Des cookies, des identifiants d'appareils ou d'autres informations peuvent être stockés ou accessibles sur votre appareil aux fins indiquées ci-dessus.

  • Annonces et contenus personnalisés, mesure des annonces et des contenus, connaissance de l'audience et développement de produits

    Les annonces et le contenu peuvent être personnalisés en fonction d'un profil. D'autres données peuvent être ajoutées pour mieux personnaliser les annonces et le contenu. Les performances des publicités et du contenu peuvent être mesurées. Il est possible d'obtenir des informations sur le public qui a vu les publicités et le contenu. Ces données peuvent être utilisées pour développer ou améliorer l'expérience de l'utilisateur, les systèmes et les logiciels.

En cliquant sur "J'accepte", vous autorisez l'utilisation de cookies, des identifiants d'appareils, des balises web ou d'autres technologies similaires. Vos paramètres peuvent être modifiés dans le navigateur de votre appareil.

Dans certains cas, des intérêts légitimes peuvent être invoqués plutôt qu'un consentement. Vous pouvez en savoir plus à ce sujet dans notre Politique de confidentialité et de cookies.